FLOCK 3M-1

Last updated on Feb. 14, 2018, 4:20 p.m. UTC

1 42995U 17068J   18045.27425256  .00002830  00000-0  14097-3 0  9999
2 42995  97.3450 161.3846 0016966 213.0036 147.0141 15.18257922 15984
UTC
Height (km)
Latitude
Longitude
Inclination
Orbital Period
UTC large
Height (km)
Speed (km/s)
/
Latitude / Longitude
Inclination (degrees)
Orbital Period (minutes)
Azimuth
Elevation
Range (km)
Doppler Factor
iOS Compass Heading
iOS Angle